Year,Month,Day,Hour,Minute,Value (Times are PST for temperature in C)
2010,08,14,00,00,17.90
2010,08,14,00,01,17.90
2010,08,14,00,02,17.90
2010,08,14,00,03,17.90
2010,08,14,00,04,17.90
2010,08,14,00,05,17.90
2010,08,14,00,06,17.90
2010,08,14,00,07,18.00
2010,08,14,00,08,17.90
2010,08,14,00,09,18.00
2010,08,14,00,10,18.00
2010,08,14,00,11,18.00
2010,08,14,00,12,18.00
2010,08,14,00,13,18.00
2010,08,14,00,14,18.00
2010,08,14,00,15,18.00
2010,08,14,00,16,18.00
2010,08,14,00,17,18.00
2010,08,14,00,18,18.00
2010,08,14,00,19,18.00
2010,08,14,00,20,18.10
2010,08,14,00,21,18.10
2010,08,14,00,22,18.10
2010,08,14,00,23,18.10
2010,08,14,00,24,18.10
2010,08,14,00,25,18.10
2010,08,14,00,26,18.10
2010,08,14,00,27,18.00
2010,08,14,00,28,18.00
2010,08,14,00,29,18.00
2010,08,14,00,30,18.00
2010,08,14,00,31,18.00
2010,08,14,00,32,18.00
2010,08,14,00,33,18.00
2010,08,14,00,34,18.00
2010,08,14,00,35,18.00
2010,08,14,00,36,18.00
2010,08,14,00,37,18.00
2010,08,14,00,38,18.00
2010,08,14,00,39,17.90
2010,08,14,00,40,17.90
2010,08,14,00,41,17.90
2010,08,14,00,42,17.90
2010,08,14,00,43,17.90
2010,08,14,00,44,17.90
2010,08,14,00,45,17.90
2010,08,14,00,46,17.90
2010,08,14,00,47,17.80
2010,08,14,00,48,17.80
2010,08,14,00,49,17.80
2010,08,14,00,50,17.80
2010,08,14,00,51,17.80
2010,08,14,00,52,17.80
2010,08,14,00,53,17.80
2010,08,14,00,54,17.80
2010,08,14,00,55,17.80
2010,08,14,00,56,17.80
2010,08,14,00,57,17.80
2010,08,14,00,58,17.90
2010,08,14,00,59,17.90
2010,08,14,01,00,17.90
2010,08,14,01,01,17.90
2010,08,14,01,02,17.90
2010,08,14,01,03,17.90
2010,08,14,01,04,17.90
2010,08,14,01,05,17.90
2010,08,14,01,06,17.80
2010,08,14,01,07,17.80
2010,08,14,01,08,17.80
2010,08,14,01,09,17.80
2010,08,14,01,10,17.80
2010,08,14,01,11,17.80
2010,08,14,01,12,17.80
2010,08,14,01,13,17.70
2010,08,14,01,14,17.70
2010,08,14,01,15,17.70
2010,08,14,01,16,17.70
2010,08,14,01,17,17.60
2010,08,14,01,18,17.60
2010,08,14,01,19,17.60
2010,08,14,01,20,17.60
2010,08,14,01,21,17.50
2010,08,14,01,22,17.50
2010,08,14,01,23,17.50
2010,08,14,01,24,17.40
2010,08,14,01,25,17.40
2010,08,14,01,26,17.30
2010,08,14,01,27,17.30
2010,08,14,01,28,17.30
2010,08,14,01,29,17.30
2010,08,14,01,30,17.30
2010,08,14,01,31,17.30
2010,08,14,01,32,17.20
2010,08,14,01,33,17.20
2010,08,14,01,34,17.20
2010,08,14,01,35,17.20
2010,08,14,01,36,17.20
2010,08,14,01,37,17.20
2010,08,14,01,38,17.20
2010,08,14,01,39,17.20
2010,08,14,01,40,17.20
2010,08,14,01,41,17.20
2010,08,14,01,42,17.20
2010,08,14,01,43,17.20
2010,08,14,01,44,17.10
2010,08,14,01,45,17.10
2010,08,14,01,46,17.10
2010,08,14,01,47,17.10
2010,08,14,01,48,17.10
2010,08,14,01,49,17.00
2010,08,14,01,50,17.00
2010,08,14,01,51,17.00
2010,08,14,01,52,17.00
2010,08,14,01,53,17.00
2010,08,14,01,54,17.00
2010,08,14,01,55,16.90
2010,08,14,01,56,16.90
2010,08,14,01,57,16.90
2010,08,14,01,58,16.80
2010,08,14,01,59,16.80
2010,08,14,02,00,16.80
2010,08,14,02,01,16.80
2010,08,14,02,02,16.80
2010,08,14,02,03,16.80
2010,08,14,02,04,16.80
2010,08,14,02,05,16.80
2010,08,14,02,06,16.80
2010,08,14,02,07,16.80
2010,08,14,02,08,16.80
2010,08,14,02,09,16.80
2010,08,14,02,10,16.80
2010,08,14,02,11,16.80
2010,08,14,02,12,16.80
2010,08,14,02,13,16.80
2010,08,14,02,14,16.80
2010,08,14,02,15,16.80
2010,08,14,02,16,16.80
2010,08,14,02,17,16.80
2010,08,14,02,18,16.70
2010,08,14,02,19,16.70
2010,08,14,02,20,16.70
2010,08,14,02,21,16.70
2010,08,14,02,22,16.70
2010,08,14,02,23,16.70
2010,08,14,02,24,16.70
2010,08,14,02,25,16.70
2010,08,14,02,26,16.70
2010,08,14,02,27,16.70
2010,08,14,02,28,16.70
2010,08,14,02,29,16.70
2010,08,14,02,30,16.70
2010,08,14,02,31,16.70
2010,08,14,02,32,16.70
2010,08,14,02,33,16.70
2010,08,14,02,34,16.70
2010,08,14,02,35,16.70
2010,08,14,02,36,16.70
2010,08,14,02,37,16.60
2010,08,14,02,38,16.60
2010,08,14,02,39,16.60
2010,08,14,02,40,16.70
2010,08,14,02,41,16.70
2010,08,14,02,42,16.70
2010,08,14,02,43,16.70
2010,08,14,02,44,16.70
2010,08,14,02,45,16.70
2010,08,14,02,46,16.60
2010,08,14,02,47,16.60
2010,08,14,02,48,16.60
2010,08,14,02,49,16.60
2010,08,14,02,50,16.60
2010,08,14,02,51,16.60
2010,08,14,02,52,16.60
2010,08,14,02,53,16.50
2010,08,14,02,54,16.50
2010,08,14,02,55,16.50
2010,08,14,02,56,16.50
2010,08,14,02,57,16.50
2010,08,14,02,58,16.40
2010,08,14,02,59,16.40
2010,08,14,03,00,16.40
2010,08,14,03,01,16.30
2010,08,14,03,02,16.30
2010,08,14,03,03,16.30
2010,08,14,03,04,16.30
2010,08,14,03,05,16.20
2010,08,14,03,06,16.20
2010,08,14,03,07,16.20
2010,08,14,03,08,16.20
2010,08,14,03,09,16.20
2010,08,14,03,10,16.20
2010,08,14,03,11,16.20
2010,08,14,03,12,16.20
2010,08,14,03,13,16.20
2010,08,14,03,14,16.20
2010,08,14,03,15,16.20
2010,08,14,03,16,16.20
2010,08,14,03,17,16.20
2010,08,14,03,18,16.20
2010,08,14,03,19,16.20
2010,08,14,03,20,16.20
2010,08,14,03,21,16.20
2010,08,14,03,22,16.20
2010,08,14,03,23,16.20
2010,08,14,03,24,16.20
2010,08,14,03,25,16.20
2010,08,14,03,26,16.10
2010,08,14,03,27,16.10
2010,08,14,03,28,16.10
2010,08,14,03,29,16.10
2010,08,14,03,30,16.10
2010,08,14,03,31,16.00
2010,08,14,03,32,16.00
2010,08,14,03,33,16.00
2010,08,14,03,34,16.00
2010,08,14,03,35,16.00
2010,08,14,03,36,15.90
2010,08,14,03,37,15.90
2010,08,14,03,38,16.00
2010,08,14,03,39,16.00
2010,08,14,03,40,16.00
2010,08,14,03,41,16.00
2010,08,14,03,42,16.00
2010,08,14,03,43,16.00
2010,08,14,03,44,16.00
2010,08,14,03,45,16.00
2010,08,14,03,46,16.00
2010,08,14,03,47,16.00
2010,08,14,03,48,16.00
2010,08,14,03,49,16.00
2010,08,14,03,50,16.00
2010,08,14,03,51,16.00
2010,08,14,03,52,16.00
2010,08,14,03,53,16.00
2010,08,14,03,54,16.00
2010,08,14,03,55,16.00
2010,08,14,03,56,15.90
2010,08,14,03,57,15.90
2010,08,14,03,58,15.90
2010,08,14,03,59,15.90
2010,08,14,04,00,15.90
2010,08,14,04,01,15.90
2010,08,14,04,02,15.80
2010,08,14,04,03,15.80
2010,08,14,04,04,15.80
2010,08,14,04,05,15.80
2010,08,14,04,06,15.80
2010,08,14,04,07,15.80
2010,08,14,04,08,15.80
2010,08,14,04,09,15.80
2010,08,14,04,10,15.80
2010,08,14,04,11,15.80
2010,08,14,04,12,15.80
2010,08,14,04,13,15.80
2010,08,14,04,14,15.80
2010,08,14,04,15,15.80
2010,08,14,04,16,15.80
2010,08,14,04,17,15.90
2010,08,14,04,18,15.80
2010,08,14,04,19,15.80
2010,08,14,04,20,15.80
2010,08,14,04,21,15.80
2010,08,14,04,22,15.80
2010,08,14,04,23,15.80
2010,08,14,04,24,15.80
2010,08,14,04,25,15.80
2010,08,14,04,26,15.80
2010,08,14,04,27,15.80
2010,08,14,04,28,15.80
2010,08,14,04,29,15.80
2010,08,14,04,30,15.80
2010,08,14,04,31,15.80
2010,08,14,04,32,15.80
2010,08,14,04,33,15.70
2010,08,14,04,34,15.70
2010,08,14,04,35,15.60
2010,08,14,04,36,15.60
2010,08,14,04,37,15.50
2010,08,14,04,38,15.40
2010,08,14,04,39,15.40
2010,08,14,04,40,15.40
2010,08,14,04,41,15.40
2010,08,14,04,42,15.40
2010,08,14,04,43,15.40
2010,08,14,04,44,15.30
2010,08,14,04,45,15.30
2010,08,14,04,46,15.30
2010,08,14,04,47,15.30
2010,08,14,04,48,15.30
2010,08,14,04,49,15.30
2010,08,14,04,50,15.30
2010,08,14,04,51,15.30
2010,08,14,04,52,15.30
2010,08,14,04,53,15.30
2010,08,14,04,54,15.30
2010,08,14,04,55,15.20
2010,08,14,04,56,15.20
2010,08,14,04,57,15.20
2010,08,14,04,58,15.20
2010,08,14,04,59,15.20
2010,08,14,05,00,15.20
2010,08,14,05,01,15.20
2010,08,14,05,02,15.20
2010,08,14,05,03,15.10
2010,08,14,05,04,15.20
2010,08,14,05,05,15.20
2010,08,14,05,06,15.20
2010,08,14,05,07,15.30
2010,08,14,05,08,15.30
2010,08,14,05,09,15.30
2010,08,14,05,10,15.30
2010,08,14,05,11,15.30
2010,08,14,05,12,15.30
2010,08,14,05,13,15.30
2010,08,14,05,14,15.30
2010,08,14,05,15,15.30
2010,08,14,05,16,15.30
2010,08,14,05,17,15.20
2010,08,14,05,18,15.20
2010,08,14,05,19,15.20
2010,08,14,05,20,15.20
2010,08,14,05,21,15.20
2010,08,14,05,22,15.20
2010,08,14,05,23,15.20
2010,08,14,05,24,15.20
2010,08,14,05,25,15.20
2010,08,14,05,26,15.20
2010,08,14,05,27,15.20
2010,08,14,05,28,15.20
2010,08,14,05,29,15.20
2010,08,14,05,30,15.20
2010,08,14,05,31,15.20
2010,08,14,05,32,15.20
2010,08,14,05,33,15.30
2010,08,14,05,34,15.30
2010,08,14,05,35,15.20
2010,08,14,05,36,15.20
2010,08,14,05,37,15.20
2010,08,14,05,38,15.20
2010,08,14,05,39,15.20
2010,08,14,05,40,15.20
2010,08,14,05,41,15.20
2010,08,14,05,42,15.20
2010,08,14,05,43,15.20
2010,08,14,05,44,15.20
2010,08,14,05,45,15.10
2010,08,14,05,46,15.10
2010,08,14,05,47,15.10
2010,08,14,05,48,15.10
2010,08,14,05,49,15.00
2010,08,14,05,50,15.00
2010,08,14,05,51,15.00
2010,08,14,05,52,15.00
2010,08,14,05,53,15.00
2010,08,14,05,54,15.00
2010,08,14,05,55,14.90
2010,08,14,05,56,14.90
2010,08,14,05,57,14.90
2010,08,14,05,58,14.90
2010,08,14,05,59,14.90
2010,08,14,06,00,14.90
2010,08,14,06,01,14.90
2010,08,14,06,02,14.90
2010,08,14,06,03,14.90
2010,08,14,06,04,15.00
2010,08,14,06,05,14.90
2010,08,14,06,06,14.90
2010,08,14,06,07,14.90
2010,08,14,06,08,14.90
2010,08,14,06,09,14.90
2010,08,14,06,10,14.90
2010,08,14,06,11,14.90
2010,08,14,06,12,14.80
2010,08,14,06,13,14.80
2010,08,14,06,14,14.80
2010,08,14,06,15,14.80
2010,08,14,06,16,14.80
2010,08,14,06,17,14.80
2010,08,14,06,18,14.80
2010,08,14,06,19,14.80
2010,08,14,06,20,14.80
2010,08,14,06,21,14.80
2010,08,14,06,22,14.80
2010,08,14,06,23,14.80
2010,08,14,06,24,14.80
2010,08,14,06,25,14.80
2010,08,14,06,26,14.80
2010,08,14,06,27,14.80
2010,08,14,06,28,14.80
2010,08,14,06,29,14.80
2010,08,14,06,30,14.80
2010,08,14,06,31,14.80
2010,08,14,06,32,14.80
2010,08,14,06,33,14.80
2010,08,14,06,34,14.80
2010,08,14,06,35,14.80
2010,08,14,06,36,14.80
2010,08,14,06,37,14.80
2010,08,14,06,38,14.80
2010,08,14,06,39,14.80
2010,08,14,06,40,14.80
2010,08,14,06,41,14.80
2010,08,14,06,42,14.80
2010,08,14,06,43,14.80
2010,08,14,06,44,14.80
2010,08,14,06,45,14.80
2010,08,14,06,46,14.80
2010,08,14,06,47,14.80
2010,08,14,06,48,14.80
2010,08,14,06,49,14.80
2010,08,14,06,50,14.80
2010,08,14,06,51,14.80
2010,08,14,06,52,14.80
2010,08,14,06,53,14.80
2010,08,14,06,54,14.80
2010,08,14,06,55,14.90
2010,08,14,06,56,14.90
2010,08,14,06,57,14.90
2010,08,14,06,58,15.00
2010,08,14,06,59,15.00
2010,08,14,07,00,15.10
2010,08,14,07,01,15.10
2010,08,14,07,02,15.20
2010,08,14,07,03,15.20
2010,08,14,07,04,15.20
2010,08,14,07,05,15.30
2010,08,14,07,06,15.30
2010,08,14,07,07,15.30
2010,08,14,07,08,15.40
2010,08,14,07,09,15.40
2010,08,14,07,10,15.40
2010,08,14,07,11,15.50
2010,08,14,07,12,15.50
2010,08,14,07,13,15.60
2010,08,14,07,14,15.60
2010,08,14,07,15,15.70
2010,08,14,07,16,15.70
2010,08,14,07,17,15.80
2010,08,14,07,18,15.80
2010,08,14,07,19,15.90
2010,08,14,07,20,15.90
2010,08,14,07,21,16.00
2010,08,14,07,22,16.00
2010,08,14,07,23,16.10
2010,08,14,07,24,16.10
2010,08,14,07,25,16.20
2010,08,14,07,26,16.20
2010,08,14,07,27,16.30
2010,08,14,07,28,16.30
2010,08,14,07,29,16.30
2010,08,14,07,30,16.40
2010,08,14,07,31,16.40
2010,08,14,07,32,16.40
2010,08,14,07,33,16.50
2010,08,14,07,34,16.50
2010,08,14,07,35,16.60
2010,08,14,07,36,16.60
2010,08,14,07,37,16.60
2010,08,14,07,38,16.70
2010,08,14,07,39,16.80
2010,08,14,07,40,16.80
2010,08,14,07,41,16.80
2010,08,14,07,42,16.90
2010,08,14,07,43,16.90
2010,08,14,07,44,17.00
2010,08,14,07,45,17.00
2010,08,14,07,46,17.10
2010,08,14,07,47,17.10
2010,08,14,07,48,17.20
2010,08,14,07,49,17.20
2010,08,14,07,50,17.30
2010,08,14,07,51,17.40
2010,08,14,07,52,17.40
2010,08,14,07,53,17.50
2010,08,14,07,54,17.50
2010,08,14,07,55,17.60
2010,08,14,07,56,17.70
2010,08,14,07,57,17.70
2010,08,14,07,58,17.80
2010,08,14,07,59,17.90
2010,08,14,08,00,18.00
2010,08,14,08,01,18.10
2010,08,14,08,02,18.20
2010,08,14,08,03,18.30
2010,08,14,08,04,18.40
2010,08,14,08,05,18.50
2010,08,14,08,06,18.60
2010,08,14,08,07,18.70
2010,08,14,08,08,18.80
2010,08,14,08,09,18.90
2010,08,14,08,10,19.00
2010,08,14,08,11,19.10
2010,08,14,08,12,19.30
2010,08,14,08,13,19.40
2010,08,14,08,14,19.60
2010,08,14,08,15,19.70
2010,08,14,08,16,19.90
2010,08,14,08,17,20.00
2010,08,14,08,18,20.20
2010,08,14,08,19,20.30
2010,08,14,08,20,20.40
2010,08,14,08,21,20.50
2010,08,14,08,22,20.60
2010,08,14,08,23,20.70
2010,08,14,08,24,20.80
2010,08,14,08,25,20.90
2010,08,14,08,26,21.00
2010,08,14,08,27,21.10
2010,08,14,08,28,21.20
2010,08,14,08,29,21.20
2010,08,14,08,30,21.30
2010,08,14,08,31,21.40
2010,08,14,08,32,21.40
2010,08,14,08,33,21.50
2010,08,14,08,34,21.60
2010,08,14,08,35,21.70
2010,08,14,08,36,21.70
2010,08,14,08,37,21.80
2010,08,14,08,38,21.80
2010,08,14,08,39,21.90
2010,08,14,08,40,22.00
2010,08,14,08,41,22.10
2010,08,14,08,42,22.10
2010,08,14,08,43,22.20
2010,08,14,08,44,22.30
2010,08,14,08,45,22.30
2010,08,14,08,46,22.40
2010,08,14,08,47,22.50
2010,08,14,08,48,22.50
2010,08,14,08,49,22.60
2010,08,14,08,50,22.60
2010,08,14,08,51,22.70
2010,08,14,08,52,22.80
2010,08,14,08,53,22.90
2010,08,14,08,54,22.90
2010,08,14,08,55,23.00
2010,08,14,08,56,23.10
2010,08,14,08,57,23.20
2010,08,14,08,58,23.30
2010,08,14,08,59,23.30
2010,08,14,09,00,23.40
2010,08,14,09,01,23.50
2010,08,14,09,02,23.60
2010,08,14,09,03,23.60
2010,08,14,09,04,23.70
2010,08,14,09,05,23.80
2010,08,14,09,06,23.90
2010,08,14,09,07,23.90
2010,08,14,09,08,24.00
2010,08,14,09,09,24.10
2010,08,14,09,10,24.10
2010,08,14,09,11,24.20
2010,08,14,09,12,24.20
2010,08,14,09,13,24.30
2010,08,14,09,14,24.30
2010,08,14,09,15,24.40
2010,08,14,09,16,24.40
2010,08,14,09,17,24.50
2010,08,14,09,18,24.40
2010,08,14,09,19,24.50
2010,08,14,09,20,24.40
2010,08,14,09,21,24.40
2010,08,14,09,22,24.40
2010,08,14,09,23,24.40
2010,08,14,09,24,24.40
2010,08,14,09,25,24.40
2010,08,14,09,26,24.50
2010,08,14,09,27,24.50
2010,08,14,09,28,24.50
2010,08,14,09,29,24.60
2010,08,14,09,30,24.60
2010,08,14,09,31,24.70
2010,08,14,09,32,24.70
2010,08,14,09,33,24.80
2010,08,14,09,34,24.80
2010,08,14,09,35,24.90
2010,08,14,09,36,25.00
2010,08,14,09,37,25.00
2010,08,14,09,38,25.00
2010,08,14,09,39,25.10
2010,08,14,09,40,25.10
2010,08,14,09,41,25.10
2010,08,14,09,42,25.10
2010,08,14,09,43,25.10
2010,08,14,09,44,25.10
2010,08,14,09,45,25.00
2010,08,14,09,46,25.00
2010,08,14,09,47,25.00
2010,08,14,09,48,25.00
2010,08,14,09,49,25.00
2010,08,14,09,50,25.00
2010,08,14,09,51,25.10
2010,08,14,09,52,25.20
2010,08,14,09,53,25.20
2010,08,14,09,54,25.30
2010,08,14,09,55,25.40
2010,08,14,09,56,25.50
2010,08,14,09,57,25.60
2010,08,14,09,58,25.60
2010,08,14,09,59,25.70
2010,08,14,10,00,25.60
2010,08,14,10,01,25.60
2010,08,14,10,02,25.50
2010,08,14,10,03,25.40
2010,08,14,10,04,25.30
2010,08,14,10,05,25.20
2010,08,14,10,06,25.10
2010,08,14,10,07,25.10
2010,08,14,10,08,25.10
2010,08,14,10,09,25.00
2010,08,14,10,10,25.00
2010,08,14,10,11,25.00
2010,08,14,10,12,25.00
2010,08,14,10,13,25.10
2010,08,14,10,14,25.10
2010,08,14,10,15,25.10
2010,08,14,10,16,25.20
2010,08,14,10,17,25.20
2010,08,14,10,18,25.30
2010,08,14,10,19,25.30
2010,08,14,10,20,25.30
2010,08,14,10,21,25.40
2010,08,14,10,22,25.50
2010,08,14,10,23,25.60
2010,08,14,10,24,25.70
2010,08,14,10,25,25.80
2010,08,14,10,26,26.00
2010,08,14,10,27,26.10
2010,08,14,10,28,26.20
2010,08,14,10,29,26.30
2010,08,14,10,30,26.40
2010,08,14,10,31,26.50
2010,08,14,10,32,26.50
2010,08,14,10,33,26.60
2010,08,14,10,34,26.70
2010,08,14,10,35,26.70
2010,08,14,10,36,26.70
2010,08,14,10,37,26.80
2010,08,14,10,38,26.80
2010,08,14,10,39,26.90
2010,08,14,10,40,26.90
2010,08,14,10,41,26.90
2010,08,14,10,42,26.90
2010,08,14,10,43,27.00
2010,08,14,10,44,27.00
2010,08,14,10,45,27.10
2010,08,14,10,46,27.20
2010,08,14,10,47,27.20
2010,08,14,10,48,27.10
2010,08,14,10,49,27.00
2010,08,14,10,50,27.00
2010,08,14,10,51,26.90
2010,08,14,10,52,26.90
2010,08,14,10,53,26.90
2010,08,14,10,54,26.90
2010,08,14,10,55,27.00
2010,08,14,10,56,27.00
2010,08,14,10,57,27.10
2010,08,14,10,58,27.20
2010,08,14,10,59,27.20
2010,08,14,11,00,27.30
2010,08,14,11,01,27.40
2010,08,14,11,02,27.40
2010,08,14,11,03,27.40
2010,08,14,11,04,27.50
2010,08,14,11,05,27.50
2010,08,14,11,06,27.60
2010,08,14,11,07,27.60
2010,08,14,11,08,27.70
2010,08,14,11,09,27.80
2010,08,14,11,10,27.80
2010,08,14,11,11,27.90
2010,08,14,11,12,27.90
2010,08,14,11,13,28.00
2010,08,14,11,14,28.10
2010,08,14,11,15,28.10
2010,08,14,11,16,28.20
2010,08,14,11,17,28.20
2010,08,14,11,18,28.20
2010,08,14,11,19,28.20
2010,08,14,11,20,28.20
2010,08,14,11,21,28.20
2010,08,14,11,22,28.20
2010,08,14,11,23,28.30
2010,08,14,11,24,28.30
2010,08,14,11,25,28.30
2010,08,14,11,26,28.30
2010,08,14,11,27,28.30
2010,08,14,11,28,28.30
2010,08,14,11,29,28.20
2010,08,14,11,30,28.20
2010,08,14,11,31,28.10
2010,08,14,11,32,28.10
2010,08,14,11,33,28.10
2010,08,14,11,34,28.00
2010,08,14,11,35,28.00
2010,08,14,11,36,28.00
2010,08,14,11,37,28.10
2010,08,14,11,38,28.10
2010,08,14,11,39,28.10
2010,08,14,11,40,28.10
2010,08,14,11,41,28.10
2010,08,14,11,42,28.10
2010,08,14,11,43,28.10
2010,08,14,11,44,28.10
2010,08,14,11,45,28.00
2010,08,14,11,46,28.00
2010,08,14,11,47,28.00
2010,08,14,11,48,27.90
2010,08,14,11,49,28.00
2010,08,14,11,50,28.00
2010,08,14,11,51,28.00
2010,08,14,11,52,28.10
2010,08,14,11,53,28.10
2010,08,14,11,54,28.10
2010,08,14,11,55,28.10
2010,08,14,11,56,28.10
2010,08,14,11,57,28.10
2010,08,14,11,58,28.10
2010,08,14,11,59,28.10
2010,08,14,12,00,28.20
2010,08,14,12,01,28.20
2010,08,14,12,02,28.20
2010,08,14,12,03,28.20
2010,08,14,12,04,28.30
2010,08,14,12,05,28.30
2010,08,14,12,06,28.30
2010,08,14,12,07,28.30
2010,08,14,12,08,28.30
2010,08,14,12,09,28.30
2010,08,14,12,10,28.30
2010,08,14,12,11,28.30
2010,08,14,12,12,28.40
2010,08,14,12,13,28.40
2010,08,14,12,14,28.40
2010,08,14,12,15,28.50
2010,08,14,12,16,28.50
2010,08,14,12,17,28.60
2010,08,14,12,18,28.60
2010,08,14,12,19,28.60
2010,08,14,12,20,28.70
2010,08,14,12,21,28.70
2010,08,14,12,22,28.70
2010,08,14,12,23,28.80
2010,08,14,12,24,28.80
2010,08,14,12,25,28.80
2010,08,14,12,26,28.90
2010,08,14,12,27,28.90
2010,08,14,12,28,28.90
2010,08,14,12,29,29.00
2010,08,14,12,30,29.00
2010,08,14,12,31,29.00
2010,08,14,12,32,29.10
2010,08,14,12,33,29.20
2010,08,14,12,34,29.20
2010,08,14,12,35,29.30
2010,08,14,12,36,29.30
2010,08,14,12,37,29.30
2010,08,14,12,38,29.30
2010,08,14,12,39,29.40
2010,08,14,12,40,29.40
2010,08,14,12,41,29.50
2010,08,14,12,42,29.60
2010,08,14,12,43,29.60
2010,08,14,12,44,29.60
2010,08,14,12,45,29.60
2010,08,14,12,46,29.60
2010,08,14,12,47,29.60
2010,08,14,12,48,29.60
2010,08,14,12,49,29.60
2010,08,14,12,50,29.60
2010,08,14,12,51,29.60
2010,08,14,12,52,29.60
2010,08,14,12,53,29.60
2010,08,14,12,54,29.60
2010,08,14,12,55,29.60
2010,08,14,12,56,29.60
2010,08,14,12,57,29.60
2010,08,14,12,58,29.70
2010,08,14,12,59,29.80
2010,08,14,13,00,29.80
2010,08,14,13,01,29.90
2010,08,14,13,02,30.00
2010,08,14,13,03,30.00
2010,08,14,13,04,30.10
2010,08,14,13,05,30.20
2010,08,14,13,06,30.20
2010,08,14,13,07,30.30
2010,08,14,13,08,30.30
2010,08,14,13,09,30.40
2010,08,14,13,10,30.40
2010,08,14,13,11,30.40
2010,08,14,13,12,30.50
2010,08,14,13,13,30.50
2010,08,14,13,14,30.60
2010,08,14,13,15,30.60
2010,08,14,13,16,30.70
2010,08,14,13,17,30.70
2010,08,14,13,18,30.70
2010,08,14,13,19,30.60
2010,08,14,13,20,30.50
2010,08,14,13,21,30.50
2010,08,14,13,22,30.40
2010,08,14,13,23,30.40
2010,08,14,13,24,30.30
2010,08,14,13,25,30.30
2010,08,14,13,26,30.20
2010,08,14,13,27,30.20
2010,08,14,13,28,30.20
2010,08,14,13,29,30.20
2010,08,14,13,30,30.20
2010,08,14,13,31,30.20
2010,08,14,13,32,30.20
2010,08,14,13,33,30.20
2010,08,14,13,34,30.20
2010,08,14,13,35,30.20
2010,08,14,13,36,30.20
2010,08,14,13,37,30.20
2010,08,14,13,38,30.20
2010,08,14,13,39,30.20
2010,08,14,13,40,30.20
2010,08,14,13,41,30.20
2010,08,14,13,42,30.20
2010,08,14,13,43,30.20
2010,08,14,13,44,30.10
2010,08,14,13,45,30.10
2010,08,14,13,46,30.00
2010,08,14,13,47,30.00
2010,08,14,13,48,30.10
2010,08,14,13,49,30.10
2010,08,14,13,50,30.10
2010,08,14,13,51,30.10
2010,08,14,13,52,30.20
2010,08,14,13,53,30.30
2010,08,14,13,54,30.40
2010,08,14,13,55,30.50
2010,08,14,13,56,30.60
2010,08,14,13,57,30.70
2010,08,14,13,58,30.70
2010,08,14,13,59,30.60
2010,08,14,14,00,30.60
2010,08,14,14,01,30.60
2010,08,14,14,02,30.50
2010,08,14,14,03,30.40
2010,08,14,14,04,30.30
2010,08,14,14,05,30.30
2010,08,14,14,06,30.20
2010,08,14,14,07,30.20
2010,08,14,14,08,30.10
2010,08,14,14,09,30.10
2010,08,14,14,10,30.10
2010,08,14,14,11,30.00
2010,08,14,14,12,30.00
2010,08,14,14,13,30.00
2010,08,14,14,14,30.00
2010,08,14,14,15,30.10
2010,08,14,14,16,30.10
2010,08,14,14,17,30.10
2010,08,14,14,18,30.20
2010,08,14,14,19,30.30
2010,08,14,14,20,30.30
2010,08,14,14,21,30.30
2010,08,14,14,22,30.40
2010,08,14,14,23,30.40
2010,08,14,14,24,30.50
2010,08,14,14,25,30.50
2010,08,14,14,26,30.60
2010,08,14,14,27,30.60
2010,08,14,14,28,30.60
2010,08,14,14,29,30.70
2010,08,14,14,30,30.70
2010,08,14,14,31,30.80
2010,08,14,14,32,30.80
2010,08,14,14,33,30.70
2010,08,14,14,34,30.70
2010,08,14,14,35,30.70
2010,08,14,14,36,30.70
2010,08,14,14,37,30.70
2010,08,14,14,38,30.70
2010,08,14,14,39,30.70
2010,08,14,14,40,30.70
2010,08,14,14,41,30.70
2010,08,14,14,42,30.70
2010,08,14,14,43,30.70
2010,08,14,14,44,30.80
2010,08,14,14,45,30.80
2010,08,14,14,46,30.80
2010,08,14,14,47,30.80
2010,08,14,14,48,30.80
2010,08,14,14,49,30.90
2010,08,14,14,50,30.90
2010,08,14,14,51,30.90
2010,08,14,14,52,31.00
2010,08,14,14,53,31.00
2010,08,14,14,54,31.10
2010,08,14,14,55,31.10
2010,08,14,14,56,31.10
2010,08,14,14,57,31.10
2010,08,14,14,58,31.10
2010,08,14,14,59,31.20
2010,08,14,15,00,31.20
2010,08,14,15,01,31.20
2010,08,14,15,02,31.20
2010,08,14,15,03,31.20
2010,08,14,15,04,31.20
2010,08,14,15,05,31.20
2010,08,14,15,06,31.20
2010,08,14,15,07,31.30
2010,08,14,15,08,31.30
2010,08,14,15,09,31.40
2010,08,14,15,10,31.40
2010,08,14,15,11,31.50
2010,08,14,15,12,31.50
2010,08,14,15,13,31.50
2010,08,14,15,14,31.60
2010,08,14,15,15,31.60
2010,08,14,15,16,31.60
2010,08,14,15,17,31.60
2010,08,14,15,18,31.70
2010,08,14,15,19,31.80
2010,08,14,15,20,31.90
2010,08,14,15,21,31.90
2010,08,14,15,22,32.00
2010,08,14,15,23,32.00
2010,08,14,15,24,32.10
2010,08,14,15,25,32.10
2010,08,14,15,26,32.10
2010,08,14,15,27,32.10
2010,08,14,15,28,32.00
2010,08,14,15,29,32.00
2010,08,14,15,30,32.00
2010,08,14,15,31,32.10
2010,08,14,15,32,32.10
2010,08,14,15,33,32.10
2010,08,14,15,34,32.10
2010,08,14,15,35,32.20
2010,08,14,15,36,32.30
2010,08,14,15,37,32.40
2010,08,14,15,38,32.50
2010,08,14,15,39,32.60
2010,08,14,15,40,32.60
2010,08,14,15,41,32.70
2010,08,14,15,42,32.70
2010,08,14,15,43,32.80
2010,08,14,15,44,32.80
2010,08,14,15,45,32.80
2010,08,14,15,46,32.80
2010,08,14,15,47,32.70
2010,08,14,15,48,32.60
2010,08,14,15,49,32.60
2010,08,14,15,50,32.70
2010,08,14,15,51,32.70
2010,08,14,15,52,32.80
2010,08,14,15,53,32.90
2010,08,14,15,54,33.00
2010,08,14,15,55,33.10
2010,08,14,15,56,33.10
2010,08,14,15,57,33.20
2010,08,14,15,58,33.20
2010,08,14,15,59,33.20
2010,08,14,16,00,33.20
2010,08,14,16,01,33.20
2010,08,14,16,02,33.20
2010,08,14,16,03,33.10
2010,08,14,16,04,32.90
2010,08,14,16,05,32.70
2010,08,14,16,06,32.60
2010,08,14,16,07,32.40
2010,08,14,16,08,32.30
2010,08,14,16,09,32.20
2010,08,14,16,10,32.00
2010,08,14,16,11,31.90
2010,08,14,16,12,31.80
2010,08,14,16,13,31.80
2010,08,14,16,14,31.80
2010,08,14,16,15,31.80
2010,08,14,16,16,31.80
2010,08,14,16,17,31.80
2010,08,14,16,18,31.90
2010,08,14,16,19,31.80
2010,08,14,16,20,31.80
2010,08,14,16,21,31.80
2010,08,14,16,22,31.80
2010,08,14,16,23,31.70
2010,08,14,16,24,31.70
2010,08,14,16,25,31.80
2010,08,14,16,26,31.80
2010,08,14,16,27,31.80
2010,08,14,16,28,31.90
2010,08,14,16,29,31.90
2010,08,14,16,30,31.90
2010,08,14,16,31,32.00
2010,08,14,16,32,32.00
2010,08,14,16,33,32.00
2010,08,14,16,34,32.00
2010,08,14,16,35,32.00
2010,08,14,16,36,32.00
2010,08,14,16,37,32.10
2010,08,14,16,38,32.10
2010,08,14,16,39,32.20
2010,08,14,16,40,32.30
2010,08,14,16,41,32.30
2010,08,14,16,42,32.40
2010,08,14,16,43,32.40
2010,08,14,16,44,32.50
2010,08,14,16,45,32.60
2010,08,14,16,46,32.60
2010,08,14,16,47,32.70
2010,08,14,16,48,32.80
2010,08,14,16,49,32.80
2010,08,14,16,50,32.90
2010,08,14,16,51,32.90
2010,08,14,16,52,33.00
2010,08,14,16,53,33.00
2010,08,14,16,54,33.10
2010,08,14,16,55,33.10
2010,08,14,16,56,33.10
2010,08,14,16,57,33.20
2010,08,14,16,58,33.20
2010,08,14,16,59,33.30
2010,08,14,17,00,33.30
2010,08,14,17,01,33.30
2010,08,14,17,02,33.40
2010,08,14,17,03,33.40
2010,08,14,17,04,33.40
2010,08,14,17,05,33.40
2010,08,14,17,06,33.30
2010,08,14,17,07,33.30
2010,08,14,17,08,33.20
2010,08,14,17,09,33.20
2010,08,14,17,10,33.10
2010,08,14,17,11,33.10
2010,08,14,17,12,33.00
2010,08,14,17,13,33.00
2010,08,14,17,14,32.90
2010,08,14,17,15,32.90
2010,08,14,17,16,32.90
2010,08,14,17,17,32.90
2010,08,14,17,18,32.90
2010,08,14,17,19,32.80